Regional Weather Roundup
Issued by NWS Green Bay, WI

Home | Current Version | Previous Version | Text Only | Print | Product List | Glossary On
Versions: 1 2 3 4 5 6 7 8 9 10 11 12 13 14 15 16 17 18 19 20 21 22 23 24 25 26 27 28 29 30 31 32 33 34 35 36 37 38 39 40 41 42 43 44 45 46 47 48 49 50
000
ASUS43 KGRB 251459
RWRGRB

NORTH-CENTRAL AND NORTHEAST WISCONSIN REGIONAL WEATHER ROUNDUP
NATIONAL WEATHER SERVICE GREEN BAY WI
900 AM CST THU DEC 25 2014

WIZ005-009-010>012-018-019-251600-
NORTH CENTRAL WISCONSIN

CITY           SKY/WX    TMP DP  RH WIND       PRES   REMARKS
IRONWOOD       CLOUDY    30  28  93 SW12      29.59R
MANITOWISH WTR NOT AVBL
ARBOR VITAE    NOT AVBL
EAGLE RIVER    NOT AVBL
LAND O LAKES   NOT AVBL
RHINELANDER    CLOUDY    29  27  92 SW8       29.67R
PHILLIPS       NOT AVBL
ANTIGO         NOT AVBL
TOMAHAWK       NOT AVBL
MERRILL        NOT AVBL
$$

WIZ013-073-251600-
NORTHEAST WISCONSIN

CITY           SKY/WX    TMP DP  RH WIND       PRES   REMARKS
IRON MOUNTAIN  CLOUDY    33  27  78 SW12      29.66R
MARINETTE      CLOUDY    34  28  80 SW8       29.72R
$$

WIZ017-030-035>037-045-251600-
CENTRAL WISCONSIN

CITY           SKY/WX    TMP DP  RH WIND       PRES   REMARKS
MEDFORD        NOT AVBL
WAUSAU         CLOUDY    31  27  85 SW8       29.71R
MOSINEE        CLOUDY    30  28  93 SW10G17   29.73R
MARSHFIELD     CLOUDY    30  26  85 SW10      29.72R
WISC RAPIDS    CLOUDY    31  26  82 SW9       29.77R
STEVENS POINT  NOT AVBL
WAUPACA        NOT AVBL
SHAWANO        NOT AVBL
CLINTONVILLE   NOT AVBL
$$

WIZ038-039-048-051-251600-
FOX VALLEY

CITY           SKY/WX    TMP DP  RH WIND       PRES   REMARKS
NWS GREEN BAY  CLOUDY    34  30  85 SW12      29.77R
APPLETON       CLOUDY    34  30  86 SW18      29.76R
OSHKOSH        CLOUDY    34  28  79 SW12      29.79R
FOND DU LAC    CLOUDY    33  27  78 SW17G24   29.80R
$$

WIZ022-050-052-251600-
EAST CENTRAL WISCONSIN

CITY           SKY/WX    TMP DP  RH WIND       PRES   REMARKS
STURGEON BAY   CLOUDY    34  27  75 SW12G20   29.76R
MANITOWOC      NOT AVBL
SHEBOYGAN      CLOUDY    34  28  79 W15       29.80R
$$

LMZ563-521-522-541>543-251600-
LAKESHORE

STATION/POSITION TIME  TEMP    WIND        PRES    VSBY  WAVE
                       AIR SEA DIR/SP/G                  HT/PER
                 (UTC) (F)     (DEG/KT/KT) (MB)    (MI)  (FT/S)
SHEBOYGAN LKSHOR 1400   35 37  240/ 16/ 19 1009.1R
KEWAUNEE LKSHORE 1400   35     240/  5/ 11 1006.7R
ALGOMA MARINA    1400          260/ 10/ 13   N/A
NORTHPORT PIER   1400   34     230/  6/ 12 1006.4R
SISTER BAY LKSHO 1400          240/ 12/ 15   N/A
CHAMBERS ISLAND  1400   34     200/  8/ 13 1006.4R
MENOMINEE LKSHOR 1400   33     210/  9/ 11 1007.1R
$$


USA.gov is the U.S. government's official web portal to all federal, state and local government web resources and services.